CZ-6A DEB, 54429

Orbit data source: Space-Track

CZ-6A DEB, 54429 is space debris in SSO originally from a launch on Fri, 11 Nov 2022 UTC launched from the Taiyaun Space Center, China (TSC). Debris objects in space refer to the collection of defunct objects orbiting the Earth. Examples of debris include non-operational satellites, rocket bodies, and fragments generated from explosions, collisions, or faulty payload assembly.

Loading next visibility...
Identifier
54429, 2022-151FD
Orbit
SSO
Country
Flag of CNCN / PRC
Related business
Manufacturer
SAST
Mission
Spacecraft
Bus & Motor
Unknown
Mass
Unknown
Launch date (UTC)
2022-11-11 (4 years ago)
Launch vehicle
Unknown
Launch site
Taiyaun Space Center, China (TSC)
Object type
Payload
Rocket body
Debris
Shape & HBR
Unknown shape, 0.2 m
Radar Cross Section
Medium (>0.1 m² and <1 m²)

Expand to show TLE details & history
Last TLE update: 2 days ago

TLE from 2 days ago
0 CZ-6A DEB
1 54429U 22151FD  26171.41034345 -.00000018  00000-0  18277-4 0  9995
2 54429  99.0512 142.4222 0167288 111.2223 250.6894 13.85508256181987
Epoch: 2026-06-20T09:50Z
TLE epoch observation values (Epoch: 2026-06-20T09:50:53.674Z)
Latitude
0.00002°
Longitude
86.07319°
Altitude
989.599 km
Speed
7.336 km/s
True Right ascension
09h 29m 41s
True Declination
0° 00' 00"
Sunlit
Object was in daylight at epoch
Visualization orbit readout
Latitude
Unknown
Longitude
Unknown
Altitude
Unknown
Speed
Unknown
Apparent Right ascension
Unknown
Apparent Declination
Unknown
Sunlit
N/A
Visualization observer readout
Local Sidereal Time
21:32:24
Azimuth
Unknown
Elevation
Unknown
Doppler factor
Unknown
Orbital elements
Apogee altitude
1,064.086 km
Perigee altitude
819.184 km
Semi-major axis
7,319.772 km
Eccentricity
0.01673
Inclination
99.0512°
RAAN
142.4222°
Arg. of periapsis
111.2223°
True anomaly
248.89299°
Mean anomaly
250.6894°
Eccentric anomaly
249.78992°
Mean motion
3.46575 °/min
Orbital period
103.87 mins
BSTAR
0.000018277
Loading maneuver chart data...
Computing Atmospheric mass density...
Loading historical data...
Loading historical data...
Loading historical data...
Loading historical data...
Loading historical data...
Loading historical data...
Loading historical data...

Documentation

Showing up to 5 results
|